Flag for Germany Weather past 2 weeks in Warstein, North Rhine-Westphalia, Germany

Now
61 °F

Fog.


Feels Like: 61 °F
Forecast: 56 / 72 °F
Wind: 5 mph from Northwest

Location: Paderborn / Lippstadt

Current Time: Jul 30, 2014 at 11:30:45 AM

Latest Report: Jul 30, 2014 at 10:50 AM


Visibility: 2 mi

Pressure: 29.86 "Hg

Humidity: 100%

Dew point: 61 °F

Location of WarsteinLocation

Historic Weather in Warstein — Graph

°F

Warstein temperature yesterday

Maximum temperature yesterday: 75 °F (at 5:50 PM)
Minimum temperature yesterday: 59 °F (at 4:20 AM)
Average temperature yesterday: 67 °F

Past Weeks' High & Low Weather Summary

 TemperatureHumidityPressure
High88 °F (Jul 19, 1:50 PM)100% (Jul 21, 5:50 AM)30.21 "Hg (Jul 21, 5:50 AM)
Low55 °F (Jul 17, 5:50 AM)27% (Jul 19, 1:20 PM)29.77 "Hg (Jul 29, 6:50 PM)
Average69 °F70%30.00 "Hg
* Reported Jul 15 10:20 AM — Jul 30 10:20 AM, Warstein, Weather by CustomWeather, © 2014

Note: Actual official high and low records may vary slightly from our data, if they occured in-between our weather recording intervals... More about our weather records

Advertising

Warstein weather history for previous 24 hours

 ConditionsComfort  
Time TempWeatherWind HumidityBarometerVisibility
10:20 AM
Jul 30
61 °FFog.6 mph100%29.86 "Hg2 mi
9:50 AM61 °FLight rain. Fog.6 mph100%29.86 "Hg2 mi
9:20 AM61 °FLight rain. Fog.6 mph100%29.86 "Hg2 mi
8:50 AM61 °FLight rain. Fog.7 mph100%29.83 "Hg2 mi
8:20 AM61 °FDrizzle. Fog.6 mph100%29.83 "Hg2 mi
7:50 AM61 °FLight rain. Fog.6 mph100%29.83 "Hg2 mi
7:20 AM61 °FRain. Fog.5 mph100%29.83 "Hg2 mi
6:50 AM63 °FDrizzle. Fog.5 mph94%29.83 "Hg2 mi
6:20 AM63 °FFog.6 mph94%29.80 "Hg2 mi
5:50 AM63 °FLight rain. Fog.5 mph100%29.80 "Hg2 mi
5:20 AM63 °FFog.6 mph100%29.80 "Hg3 mi
4:50 AM63 °FFog.5 mph100%29.80 "Hg3 mi
4:20 AM63 °FFog.7 mph100%29.80 "Hg3 mi
3:50 AM63 °FFog.5 mph100%29.80 "Hg2 mi
12:50 AM64 °FPassing clouds.3 mph94%29.80 "HgN/A
12:20 AM64 °FPassing clouds.3 mph100%29.83 "HgN/A
11:50 PM
Jul 29
64 °FPassing clouds.5 mph100%29.83 "HgN/A
11:20 PM66 °FPartly cloudy.7 mph88%29.83 "HgN/A
10:50 PM68 °FPartly cloudy.6 mph88%29.80 "HgN/A
10:20 PM68 °FPassing clouds.5 mph83%29.80 "HgN/A
9:50 PM68 °FBroken clouds.6 mph78%29.80 "HgN/A
9:20 PM70 °FBroken clouds.7 mph73%29.80 "HgN/A
8:50 PM70 °FBroken clouds.5 mph78%29.80 "HgN/A
8:20 PM72 °FPartly sunny.1 mph73%29.80 "HgN/A
7:50 PM73 °FScattered clouds.2 mph69%29.77 "HgN/A
7:20 PM75 °FScattered clouds.2 mph61%29.77 "HgN/A
6:50 PM75 °FScattered clouds.3 mph61%29.77 "HgN/A
6:20 PM75 °FScattered clouds.5 mph61%29.80 "HgN/A
5:50 PM75 °FPassing clouds.3 mph61%29.80 "HgN/A
5:20 PM73 °FClear.3 mph65%29.80 "Hg6 mi
4:50 PM73 °FClear.5 mph69%29.80 "Hg6 mi
4:20 PM73 °FClear.5 mph69%29.80 "Hg6 mi
3:50 PM72 °FClear.5 mph78%29.83 "Hg5 mi
3:20 PM70 °FClear.5 mph83%29.83 "Hg5 mi
2:50 PM68 °FBroken clouds.2 mph94%29.83 "Hg5 mi
2:20 PM68 °FBroken clouds.3 mph94%29.83 "Hg4 mi
1:50 PM68 °FBroken clouds.3 mph94%29.86 "Hg5 mi
1:20 PM66 °FRain. Broken clouds.2 mph100%29.86 "Hg2 mi
12:50 PM66 °FRain. Broken clouds.6 mph100%29.86 "Hg2 mi
12:20 PM66 °FRain showers. Broken clouds.8 mph94%29.86 "Hg2 mi
11:50 AM66 °FRain showers. Broken clouds.8 mph94%29.86 "Hg2 mi
11:20 AM68 °FLight rain. Broken clouds.3 mph88%29.86 "Hg4 mi
Weather by CustomWeather, © 2014

See weather overviewHow to use our weather pages